sat.trackr.live / text

‹ back to catalog

STARLINK-31457

NORAD 59414 · 2024-064S

PAYLOAD ACTIVE UNKNOWN

§ Identity

Operator
Country
US
Launch date
2024-04-05
Launch site
AFETR
Launch vehicle
Mass (kg)
RCS (m²)

Purposes: comms

External: N2YO · Heavens-Above · Gunter

§ Orbital elements

Epoch: 2026-05-24T20:35:54.147840Z

Period
94.27 min
Inclination
43.0030°
Eccentricity
0.0000961
Mean motion
15.27573147 rev/d
Perigee alt
482.4 km
Apogee alt
483.7 km
Semi-major
6,861.2 km
B*
6.6314e-6
RAAN
339.1604°
Arg perigee
254.4995°
Mean anomaly
105.5751°
Rev number
12,095

§ Raw data

STARLINK-314571 59414U 24064S   26144.85826560 -.00000080  00000+0  66314-5 0  99992 59414  43.0030 339.1604 0000961 254.4995 105.5751 15.27573147120958

JSON: /api/v1/satellites/59414 · /tle

For live sub-satellite position, see the globe view (requires WebGL).

§ Visibility from observer

Set your observer location to see the next 7 days of passes ≥ 10°. The values pass through the URL so the page stays shareable.

No JS? Fill the form by hand. The geolocation button needs JavaScript.